Location: Crescent
(42.8242°N, 73.7329°W)
Time: 18:33:11
(UTC+00:00)

SR - Pass Details

Date: 18 February 2026
Orbit: 572 x 848 km, 66.7° (Epoch: 8 March)

Event Time Altitude Azimuth Distance (km) Brightness Sun altitude
Rises 19:46:24 0° 307° (NW) 3,154 ? 24.9°
Reaches altitude 10° 19:50:10 10° 279° (W) 2,293 ? 24.4°
Maximum altitude 19:52:15 12° 255° (WSW) 2,159 ? 24.2°
Drops below altitude 10° 19:54:23 10° 232° (SW) 2,353 ? 23.9°
Sets 19:58:24 0° 204° (SSW) 3,330 ? 23.4°
